Weather in Maslovka

Russia / Republic of Tatarstan     55°26′06″N   50°00′28″E
temp.,
°C
wind,
m/s
gust,
m/s
humid.,
%
clouds,
%
prec.,
mm/h
press.,
hPa
HPBL,
m
26 july, mon
mon2600:00+13nne115320 0.0 102132
03:00+15sw124891 0.0 102243
06:00+16wsw345782 0.0 1022194
09:00+20w45495 0.0 1022951
12:00+21w4544100 0.0 10211891
15:00+22wnw464399 0.0 10201837
18:00+20wsw345587 0.0 1020149
21:00+17w336110 0.0 102061
27 july, tue
tue2700:00+15w356641 0.0 101995
03:00+17wsw595923 0.0 1019290
06:00+17w4862100 0.0 1018263
09:00+22wnw68525 0.0 1017986
12:00+19wnw476797 0.1 1017455
15:00+21nnw896251 0.6 10161069
18:00+21nnw475494 0.2 1016651
21:00+16nw235612 0.2 101637
28 july, wed
wed2800:00+13ne35720 0.0 101782
03:00+12nne33770 0.0 101861
06:00+14nnw226710 0.0 1018149
09:00+19wnw23519 0.0 1018985
12:00+21w34405 0.0 10171490
15:00+23wnw363921 0.0 10151935
18:00+21w465319 0.0 1014312
21:00+19sw4763100 0.0 1013147
29 july, thu
thu2900:00+16sw5891100 0.3 1013178
03:00+16sw4689100 0.3 1011146
06:00+18ssw5886100 0.1 1010280
09:00+18wsw61285100 0.5 1009569
12:00+18s51192100 3.3 1008856
15:00+18sw101594100 9.6 1005905
18:00+18sw699270 1.2 1004491
21:00+18sw369641 1.3 1003163
30 july, fri
fri3000:00+18wsw4795100 0.0 1003214
03:00+16w489890 0.1 1003246
06:00+17wnw3697100 0.3 1004328
09:00+20nw577878 0.3 1006797
12:00+23w566499 0.0 1007867
15:00+25w58575 0.0 10061169
18:00+25wsw486699 0.3 1006264
21:00+20wnw4879100 0.4 1007124